Torna al catalogo

SL-12 DEB

LostHEO
NORAD 43543·DEBRIS·🇷🇺 Russia

Lanciato Mar 1, 2010 da Baikonur Cosmodrome

Loading…

Prossimi Passaggi (prossime 24 ore)

TLE

ObsoletoSource: Space-Track

Epoca: Aug 6, 2018, 18:51 UTC

1 43543U 10007AC  18218.78603953 -.00002964 +00000-0 -73475-2 0  9999
2 43543 066.0042 152.0259 5760804 041.7415 345.2026 04.19578599002860

Traccia SL-12 DEB in tempo reale con AllMySat

Download on the App Store